"Pseudo-MPEC" for P11HVxe

Created 2023 Sep 25 2:22:14 UT using Find_Orb

Click here for an explanation of pseudo-MPECs

 
 Astrometry: 
     P11HVxe  C2023 08 184+4i5TZ`arwR@eN./ooefWt,hmRV#Xkck[REo8`h69bUAqd6@OWRF51
     P11HVxe  C2023 08 18#ctppPAstrometrysN-ekxxwI6]7PT6KKE*sw-6K$`QhcZ;pXl@HF51
     P11HVxe  C2023 08 18O1)Ze?+jsGjWtAeemCKItn2k(';:s5bGE6fvWlw!IrBh75e^:0J_F51
     P11HVxe* C2023 08 198QR$6o'7n=WgmhYki\=2KT!jp:*[diMpDt4OUKCM(0@KC1:(+\(uF51
     P11HVxe  C2023 08 19-BZB`IoVGO+[$:`gCfbndM.jV5O8qredacted;$y9^Ayb70/@okEF51
     P11HVxe  C2023 08 19/Q!wtg_BQ2QuB@$[7)4click*g0])!m9Ab^fL5AIdcb,nN7jqWH,F51
     P11HVxe  C2023 08 19HQ@RsPjQ7;MTSmi5)-xkmls+6jhere_PejKqcUafay[4-5for'3XF52
     P11HVxe  C2023 08 19?n-2aZ=QKZjUy[pD\2dCeWri^+GUGfI.x0hpmP,IOg)yfe1P.vPeF52
     P11HVxe  C2023 08 19H?$S@YT`explanation(b9m+/cR9oUB7_A#J-S3]^x,WV_xin^r0F52
     P11HVxe  C2023 08 19w?;`(HyQ#Ahb=kgJya]Rm:/-lx!+J1\C'C%)vW,ryI5k69Dj[BHuF52

Station data:
(F51) Pan-STARRS 1, Haleakala  (N20.707234 W156.255910)  US/Hawaii.
   Observers J. Bulger, T. Lowe, A. Schultz, M. Willman. Measurers K.
   Chambers, S. Chastel, T. de Boer, L. Denneau, J. Fairlamb, H. Flewelling,
   M. Huber, C.-C. Lin, E. Magnier, Y. Ramanjooloo, R. Wainscoat, R. Weryk.
   1.8-m Ritchey-Chrétien + CCD.
(F52) Pan-STARRS 2, Haleakala  (N20.707382 W156.255910)  US/Hawaii.
   Observers J. Bulger, T. Dukes, T. Lowe, A. Schultz, M. Willman. Measurers
   K. Chambers, S. Chastel, T. de Boer, L. Denneau, J. Fairlamb, H.
   Flewelling, M. Huber, C.-C. Lin, E. Magnier, Y. Ramanjooloo, R. Wainscoat,
   R. Weryk. 1.8-m Ritchey-Chrétien + CCD.

Orbital elements:  P11HVxe
   Perihelion 2024 Jan 6.79923 +/- 6.87 TT = 19:10:53 (JD 2460316.29923)
Epoch 2023 Aug 19.0 TT = JDT 2460175.5   Earth MOID: 0.0968   Ma: 0.0492
M 283.13059585 +/- 6                (J2000 ecliptic)             AutoNEOCP
n   0.54595046 +/- 0.023            Peri.  298.76058 +/- 2.0
a   1.48263377 +/- 0.0416           Node   142.50478 +/- 0.06
e   0.3346664 +/- 0.0378            Incl.   11.48400 +/- 0.36
P   1.81/659.39d           H 22.46  G  0.15   U 10.2
q 0.98644592 +/- 0.0285    Q 1.97882162 +/- 0.111
From 10 observations 2023 Aug. 18-19 (28.4 hr); mean residual 0".18
Residuals in arcseconds: 
230818 F51  .33+  .33-    230819 F51  .03-  .08-    230819 F52  .02-  .12+    
230818 F51  .29-  .11-    230819 F51  .06-  .06+    230819 F52  .10+  .13+    
230818 F51  .05-  .44+    230819 F52  .07-  .27-    
230819 F51  .06+  .00     230819 F52  .02+  .03+    

Ephemerides (geocentric):
Date (UTC) HH   RA             Dec           delta  r     elong  mag " sig PA
---- --------  ------------   ------------  ------ ------ -----  --- --------
2023 09 25 02  21 10 12.986   -30 00 36.01  .48161 1.3556 128.3 23.0 2026  43
2023 09 25 03  21 10 11.278   -30 01 20.00  .48167 1.3553 128.3 23.0 2030  43
2023 09 25 04  21 10 09.576   -30 02 03.92  .48173 1.3551 128.2 23.0 2034  43
2023 09 25 05  21 10 07.882   -30 02 47.79  .48179 1.3549 128.2 23.0 2038  43
2023 09 25 06  21 10 06.194   -30 03 31.59  .48185 1.3547 128.1 23.0 2042  43
2023 09 25 07  21 10 04.514   -30 04 15.34  .48191 1.3545 128.1 23.0 2046  43
2023 09 25 08  21 10 02.840   -30 04 59.02  .48197 1.3543 128.0 23.0 2050  43
2023 09 25 09  21 10 01.173   -30 05 42.64  .48203 1.3541 128.0 23.0 2054  43
2023 09 25 10  21 09 59.514   -30 06 26.21  .48209 1.3539 127.9 23.0 2058  43
2023 09 25 11  21 09 57.861   -30 07 09.71  .48215 1.3537 127.9 23.0 2062  43
2023 09 25 12  21 09 56.215   -30 07 53.15  .48221 1.3535 127.8 23.0 2066  43
2023 09 25 13  21 09 54.577   -30 08 36.54  .48227 1.3533 127.8 23.0 2070  43
2023 09 25 14  21 09 52.945   -30 09 19.86  .48233 1.3531 127.7 23.0 2074  43
2023 09 25 15  21 09 51.320   -30 10 03.12  .48239 1.3528 127.7 23.0 2078  43
2023 09 25 16  21 09 49.702   -30 10 46.33  .48245 1.3526 127.6 23.0 2082  43
2023 09 25 17  21 09 48.092   -30 11 29.47  .48252 1.3524 127.6 23.0 2086  43
2023 09 25 18  21 09 46.488   -30 12 12.55  .48258 1.3522 127.5 23.0 2090  43
2023 09 25 19  21 09 44.891   -30 12 55.57  .48264 1.3520 127.5 23.0 2094  43
2023 09 25 20  21 09 43.301   -30 13 38.54  .48270 1.3518 127.4 23.0 2098  43
2023 09 25 21  21 09 41.719   -30 14 21.44  .48276 1.3516 127.4 23.0 2103  43
2023 09 25 22  21 09 40.143   -30 15 04.28  .48282 1.3514 127.3 23.0 2107  43
2023 09 25 23  21 09 38.574   -30 15 47.07  .48288 1.3512 127.3 23.0 2111  43
2023 09 26 00  21 09 37.013   -30 16 29.79  .48295 1.3510 127.2 23.0 2115  43
2023 09 26 01  21 09 35.458   -30 17 12.45  .48301 1.3508 127.2 23.0 2119  43
2023 09 26 02  21 09 33.910   -30 17 55.06  .48307 1.3506 127.1 23.0 2123  43
2023 09 26 03  21 09 32.370   -30 18 37.60  .48313 1.3503 127.1 23.0 2127  43
2023 09 26 04  21 09 30.836   -30 19 20.09  .48320 1.3501 127.0 23.0 2131  43
2023 09 26 05  21 09 29.310   -30 20 02.51  .48326 1.3499 127.0 23.0 2135  43
2023 09 26 06  21 09 27.790   -30 20 44.87  .48332 1.3497 126.9 23.0 2139  43
2023 09 26 07  21 09 26.278   -30 21 27.18  .48338 1.3495 126.9 23.0 2143  43
2023 09 26 08  21 09 24.773   -30 22 09.42  .48345 1.3493 126.8 23.0 2147  43
2023 09 26 09  21 09 23.274   -30 22 51.61  .48351 1.3491 126.8 23.0 2151  43
2023 09 26 10  21 09 21.783   -30 23 33.73  .48357 1.3489 126.7 23.0 2155  43
2023 09 26 11  21 09 20.299   -30 24 15.80  .48363 1.3487 126.7 23.0 2159  43
2023 09 26 12  21 09 18.822   -30 24 57.81  .48370 1.3485 126.7 23.0 2163  43
2023 09 26 13  21 09 17.352   -30 25 39.75  .48376 1.3483 126.6 23.0 2167  43
2023 09 26 14  21 09 15.889   -30 26 21.64  .48382 1.3480 126.6 23.0 2171  43
2023 09 26 15  21 09 14.433   -30 27 03.47  .48389 1.3478 126.5 23.0 2175  43
2023 09 26 16  21 09 12.984   -30 27 45.24  .48395 1.3476 126.5 23.0 2179  43
2023 09 26 17  21 09 11.542   -30 28 26.95  .48401 1.3474 126.4 23.0 2183  43
2023 09 26 18  21 09 10.107   -30 29 08.59  .48408 1.3472 126.4 23.0 2187  43
2023 09 26 19  21 09 08.680   -30 29 50.18  .48414 1.3470 126.3 23.0 2191  43
2023 09 26 20  21 09 07.259   -30 30 31.71  .48421 1.3468 126.3 23.0 2195  43
2023 09 26 21  21 09 05.846   -30 31 13.18  .48427 1.3466 126.2 23.0 2199  43
2023 09 26 22  21 09 04.439   -30 31 54.60  .48433 1.3464 126.2 23.0 2203  43
2023 09 26 23  21 09 03.040   -30 32 35.95  .48440 1.3462 126.1 23.0 2207  43
2023 09 27 00  21 09 01.648   -30 33 17.24  .48446 1.3460 126.1 23.0 2211  43
2023 09 27 01  21 09 00.263   -30 33 58.47  .48453 1.3458 126.0 23.0 2215  43